This demonstration page uses our WeatherBlox Daily Observations layout. Learn more.

40.92945, -100.16068

Hourly Observations for January 31, 2017

Temp ( °F °C ) Dew Point ( °F °C ) Humidity (%) Winds ( mph kmh ) Pressure ( in mb ) Visibility ( mi km ) Precip ( " mm )
12:15 am 00:15 Clear 32 0 26 -3.1 80 80 W 7 11 30.12 1020 10 16.0934 0 0
12:35 am 00:35 Clear 31 -0.5 26 -3.5 80 80 W 8 13 30.12 1020 10 16.0934 0 0
12:55 am 00:55 Clear 31 -0.7 26 -3.5 82 82 Calm 30.09 1019 10 16.0934 0 0
1:15 am 01:15 Clear 31 -0.5 26 -3.4 81 81 Calm 30.12 1020 10 16.0934 0 0
1:35 am 01:35 Clear 31 -0.5 26 -3.5 80 80 Calm 30.12 1020 10 16.0934 0 0
1:55 am 01:55 Clear 30 -1 26 -3.5 83 83 W 5 7 30.12 1020 10 16.0934 0 0
2:15 am 02:15 Clear 30 -1.3 25 -4 82 82 W 6 9 30.12 1020 10 16.0934 0 0
2:35 am 02:35 Clear 28 -2.4 24 -4.4 86 86 W 6 9 30.09 1019 10 16.0934 0 0
2:55 am 02:55 Clear 28 -2.5 24 -4.6 86 86 WNW 6 9 30.15 1021 10 16.0934 0 0
3:15 am 03:15 Clear 26 -3.1 23 -5.1 86 86 WNW 6 9 30.12 1020 10 16.0934 0 0
3:35 am 03:35 Clear 26 -3.2 23 -5.1 87 87 NW 7 11 30.12 1020 10 16.0934 0 0
3:55 am 03:55 Clear 27 -2.6 24 -4.6 86 86 NW 6 9 30.15 1021 10 16.0934 0 0
4:15 am 04:15 Clear 28 -2.5 24 -4.6 86 86 WNW 7 11 30.15 1021 10 16.0934 0 0
4:35 am 04:35 Clear 29 -1.4 25 -3.7 85 85 WNW 6 9 30.09 1019 10 16.0934 0 0
4:55 am 04:55 Clear 30 -1.3 26 -3.6 85 85 WNW 6 9 30.09 1019 10 16.0934 0 0
5:15 am 05:15 Clear 31 -0.4 26 -3.5 80 80 NNW 8 13 30.09 1019 10 16.0934 0 0
5:35 am 05:35 Partly Cloudy 32 -0.1 26 -3.6 78 78 NNW 7 11 30.12 1020 10 16.0934 0 0
5:55 am 05:55 Clear 32 -0.2 26 -3.4 79 79 NW 5 7 30.12 1020 10 16.0934 0 0
6:15 am 06:15 Mostly Cloudy 32 -0.2 27 -3 82 82 NW 5 7 30.12 1020 10 16.0934 0 0
6:35 am 06:35 Mostly Cloudy 32 -0.1 26 -3.1 80 80 N 6 9 30.09 1019 10 16.0934 0 0
6:55 am 06:55 Mostly Cloudy 31 -0.3 26 -3.1 82 82 Calm 30.09 1019 10 16.0934 0 0
7:15 am 07:15 Cloudy 31 -0.5 27 -2.8 85 85 W 5 7 30.12 1020 10 16.0934 0 0
7:35 am 07:35 Cloudy 31 -0.3 27 -2.7 84 84 W 3 6 30.12 1020 10 16.0934 0 0
7:55 am 07:55 Cloudy 32 -0.1 27 -2.7 83 83 NW 5 7 30.12 1020 10 16.0934 0 0
8:15 am 08:15 Cloudy 32 0 27 -2.6 83 83 NW 5 7 30.12 1020 10 16.0934 0 0
8:35 am 08:35 Cloudy 32 0 28 -2.5 83 83 NW 6 9 30.12 1020 10 16.0934 0 0
8:55 am 08:55 Cloudy 33 0.4 28 -2.5 81 81 NNW 6 9 30.12 1020 10 16.0934 0 0
9:15 am 09:15 Cloudy 33 0.5 28 -2.2 82 82 NNW 5 7 30.12 1020 10 16.0934 0 0
9:35 am 09:35 Cloudy 34 1 28 -2.2 79 79 WNW 3 6 30.09 1019 10 16.0934 0 0
9:55 am 09:55 Mostly Cloudy 35 1.7 28 -2.1 76 76 NNW 5 7 30.09 1019 10 16.0934 0 0
10:15 am 10:15 Sunny 37 2.9 28 -2.2 69 69 NNW 6 9 30.09 1019 10 16.0934 0 0
10:35 am 10:35 Sunny 39 3.7 27 -2.7 63 63 N 7 11 30.06 1018 10 16.0934 0 0
10:55 am 10:55 Sunny 39 4 27 -2.9 61 61 N 5 7 30.06 1018 10 16.0934 0 0
11:15 am 11:15 Sunny 40 4.4 27 -2.8 60 60 NNE 3 6 30.06 1018 10 16.0934 0 0
11:35 am 11:35 Sunny 41 5 25 -4 53 53 ENE 5 7 30.06 1018 10 16.0934 0 0
11:55 am 11:55 Sunny 42 5.5 24 -4.4 49 49 NE 7 11 30.06 1018 10 16.0934 0 0
12:15 pm 12:15 Sunny 41 5.1 24 -4.6 50 50 NE 7 11 30.03 1017 10 16.0934 0 0
12:35 pm 12:35 Sunny 41 4.8 25 -4.1 53 53 NE 5 7 30.03 1017 10 16.0934 0 0
12:55 pm 12:55 Sunny 41 4.8 25 -3.9 54 54 ENE 5 7 30.03 1017 10 16.0934 0 0
1:15 pm 13:15 Partly Cloudy 41 5.1 25 -4.1 52 52 E 6 9 30 1016 10 16.0934 0 0
1:35 pm 13:35 Sunny 41 5.1 24 -4.4 51 51 E 5 7 30 1016 10 16.0934 0 0
1:55 pm 13:55 Sunny 41 5.2 25 -4.1 51 51 ESE 6 9 29.97 1015 10 16.0934 0 0
2:15 pm 14:15 Sunny 43 6.2 25 -3.8 49 49 E 8 13 29.94 1014 10 16.0934 0 0
2:35 pm 14:35 Sunny 44 6.4 25 -4.1 47 47 ESE 8 13 29.94 1014 10 16.0934 0 0
2:55 pm 14:55 Sunny 44 6.6 25 -4.1 47 47 ESE 7 11 29.94 1014 10 16.0934 0 0
3:15 pm 15:15 Sunny 44 6.5 24 -4.4 46 46 E 7 11 29.94 1014 10 16.0934 0 0
3:35 pm 15:35 Sunny 44 6.9 24 -4.3 45 45 SE 5 7 29.94 1014 10 16.0934 0 0
3:55 pm 15:55 Sunny 44 6.5 25 -3.9 48 48 E 9 15 29.94 1014 10 16.0934 0 0
4:15 pm 16:15 Sunny 44 6.9 25 -3.8 47 47 E 9 15 29.94 1014 10 16.0934 0 0
4:35 pm 16:35 Sunny 44 6.5 25 -4.1 47 47 E 8 13 29.94 1014 10 16.0934 0 0
4:55 pm 16:55 Sunny 44 6.8 25 -4.1 46 46 E 9 15 29.94 1014 10 16.0934 0 0
5:15 pm 17:15 Sunny 43 6.2 26 -3.3 51 51 E 8 13 29.94 1014 10 16.0934 0 0
5:35 pm 17:35 Sunny 42 5.4 27 -3 55 55 E 9 15 29.97 1015 10 16.0934 0 0
6:15 pm 18:15 Clear 39 4 28 -2.4 63 63 E 8 13 30 1016 10 16.0934 0 0
6:35 pm 18:35 Clear 38 3.4 28 -2 68 68 ENE 8 13 30.06 1018 10 16.0934 0 0
6:55 pm 18:55 Clear 37 3 28 -2.3 68 68 ENE 8 13 30.06 1018 10 16.0934 0 0
7:15 pm 19:15 Clear 37 2.7 28 -2.5 69 69 ENE 12 19 30.06 1018 10 16.0934 0 0
7:35 pm 19:35 Clear 36 2.4 28 -2.5 70 70 NE 13 20 30.09 1019 10 16.0934 0 0
7:55 pm 19:55 Clear 35 1.7 26 -3.5 69 69 ENE 14 22 30.09 1019 10 16.0934 0 0
8:15 pm 20:15 Clear 34 1.1 25 -3.8 70 70 ENE 10 17 30.09 1019 10 16.0934 0 0
8:35 pm 20:35 Clear 34 1 26 -3.6 72 72 ENE 9 15 30.09 1019 10 16.0934 0 0
8:55 pm 20:55 Clear 33 0.8 26 -3.6 73 73 NE 10 17 30.15 1021 10 16.0934 0 0
9:15 pm 21:15 Clear 33 0.8 25 -3.7 72 72 ENE 10 17 30.15 1021 10 16.0934 0 0
9:35 pm 21:35 Clear 33 0.6 25 -3.7 73 73 ENE 10 17 30.15 1021 10 16.0934 0 0
9:55 pm 21:55 Clear 33 0.3 25 -3.8 74 74 NE 10 17 30.15 1021 10 16.0934 0 0
10:15 pm 22:15 Clear 32 0.2 26 -3.6 76 76 NE 10 17 30.15 1021 10 16.0934 0 0
10:35 pm 22:35 Clear 32 0.1 26 -3.2 79 79 NE 10 17 30.15 1021 10 16.0934 0 0
10:55 pm 22:55 Clear 32 0.1 27 -3 80 80 NE 12 19 30.15 1021 10 16.0934 0 0
11:15 pm 23:15 Partly Cloudy 32 0 28 -2.5 83 83 NE 10 17 30.15 1021 10 16.0934 0 0
11:35 pm 23:35 Mostly Cloudy 32 0.1 28 -2.2 85 85 NE 9 15 30.18 1022 10 16.0934 0 0
11:55 pm 23:55 Cloudy 32 0.1 28 -2 86 86 NE 10 17 30.18 1022 10 16.0934 0 0

Powered by AerisWeather